Flag for U.S.A. Weather past 2 weeks in Cambridge, Massachusetts, U.S.A.

Now
51 °F

Passing clouds.


Feels Like: 46 °F
Forecast: 49 / 82 °F
Wind: 14 mph from Southwest

Location: Logan International Airport

Current Time: May 24, 2015 at 4:11:20 AM

Latest Report: May 24, 2015 at 3:54 AM


Visibility: 10 mi

Pressure: 30.26 "Hg

Humidity: 61%

Dew point: 38 °F

Location of CambridgeLocation

Historic Weather in Cambridge — Graph

°F

Cambridge temperature yesterday

Maximum temperature yesterday: 64 °F (at 3:54 PM)
Minimum temperature yesterday: 44 °F (at 5:54 AM)
Average temperature yesterday: 55 °F

Past Weeks' High & Low Weather Summary

 TemperatureHumidityPressure
High88 °F (May 10, 2:54 PM)100% (May 10, 4:54 AM)30.36 "Hg (May 10, 4:54 AM)
Low44 °F (May 23, 5:54 AM)16% (May 22, 3:54 PM)29.62 "Hg (May 12, 4:54 PM)
Average60 °F63%30.07 "Hg
* Reported May 9 2:54 AM — May 24 2:54 AM, Cambridge, Weather by CustomWeather, © 2015

Note: Actual official high and low records may vary slightly from our data, if they occured in-between our weather recording intervals... More about our weather records

Advertising

Cambridge weather history for previous 24 hours

 ConditionsComfort  
Time TempWeatherWind HumidityBarometerVisibility
2:54 AM
Sun, May 24
51 °FPassing clouds.14 mph61%30.27 "Hg10 mi
1:54 AM53 °FPassing clouds.15 mph52%30.28 "Hg10 mi
12:54 AM54 °FClear.13 mph45%30.28 "Hg10 mi
11:54 PM
Sat, May 23
54 °FClear.15 mph41%30.29 "Hg10 mi
10:54 PM56 °FClear.13 mph33%30.28 "Hg10 mi
9:54 PM57 °FClear.8 mph32%30.28 "Hg10 mi
8:54 PM60 °FPassing clouds.9 mph24%30.28 "Hg10 mi
7:54 PM61 °FPassing clouds.9 mph22%30.27 "Hg10 mi
6:54 PM63 °FSunny.12 mph21%30.27 "Hg10 mi
5:54 PM64 °FSunny.13 mph20%30.26 "Hg10 mi
4:54 PM64 °FSunny.14 mph19%30.26 "Hg10 mi
3:54 PM64 °FSunny.10 mph18%30.28 "Hg10 mi
2:54 PM63 °FSunny.20 mph20%30.29 "Hg10 mi
1:54 PM60 °FSunny.17 mph21%30.31 "Hg10 mi
12:54 PM58 °FSunny.14 mph23%30.32 "Hg10 mi
11:54 AM56 °FPassing clouds.15 mph24%30.32 "Hg10 mi
10:54 AM53 °FPassing clouds.15 mph25%30.32 "Hg10 mi
9:54 AM52 °FSunny.15 mph26%30.32 "Hg10 mi
8:54 AM49 °FSunny.12 mph29%30.32 "Hg10 mi
7:54 AM47 °FSunny.13 mph34%30.31 "Hg10 mi
6:54 AM45 °FPassing clouds.12 mph40%30.29 "Hg10 mi
5:54 AM44 °FPassing clouds.9 mph43%30.27 "Hg10 mi
4:54 AM45 °FPassing clouds.15 mph49%30.22 "Hg10 mi
Weather by CustomWeather, © 2015

See weather overviewHow to use our weather pages